Regional Weather Roundup
Issued by NWS

Home | Current Version | Previous Version | Graphics & Text | Print | Product List | Glossary On
Versions: 1 2 3 4 5 6 7 8 9 10 11 12 13 14 15 16 17 18 19 20 21 22 23 24 25 26 27 28 29 30 31 32 33 34 35 36 37 38 39 40 41 42 43 44 45 46 47 48 49 50
000
ASUS43 KMKX 202111
RWRWI

WISCONSIN REGIONAL WEATHER ROUNDUP
NATIONAL WEATHER SERVICE MILWAUKEE/SULLIVAN WI
400 PM CDT WED AUG 20 2014

NOTE: "FAIR" INDICATES FEW OR NO CLOUDS BELOW 12,000 FEET WITH NO
SIGNIFICANT WEATHER AND/OR OBSTRUCTIONS TO VISIBILITY.

WIZ001-002-006>008-014>016-023>028-202200-
NORTHWEST WISCONSIN

CITY           SKY/WX    TMP DP  RH WIND       PRES   REMARKS
SUPERIOR ARPT  CLOUDY    71  61  71 E6        29.90S
ASHLAND        CLOUDY    70  62  76 NE6       29.92S
HAYWARD        CLOUDY    70  60  70 E3        29.92S
SIREN          PTSUNNY   74  60  61 E3        29.90S
RICE LAKE      CLOUDY    73  60  63 CALM      29.91S
LADYSMITH      CLOUDY    73  61  66 SW3       29.93S
EAU CLAIRE     MOSUNNY   78  62  57 VRB3      29.88S HX  80
MENOMONIE      MOCLDY    81  60  48 CALM      29.88S HX  82
NEW RICHMOND   PTSUNNY   77  63  62 CALM      29.88S
OSCEOLA        PTSUNNY   78  63  60 CALM      29.91S
$$

WIZ003>005-009-010-017-018-202200-
NORTH CENTRAL WISCONSIN

CITY           SKY/WX    TMP DP  RH WIND       PRES   REMARKS
WOODRUFF       CLOUDY    69  61  74 CALM      29.94R
RHINELANDER    CLOUDY    68  59  73 VRB3      29.94R
EAGLE RIVER    CLOUDY    68  58  72 N3        29.92R
LAND O LAKES   CLOUDY    66  61  82 N3        29.94R
PHILLIPS       CLOUDY    68  59  72 CALM      29.92S
TOMAHAWK       CLOUDY    67  59  75 CALM      29.94R
MEDFORD        MOSUNNY   69  61  73 CALM      29.91S
MERRILL        CLOUDY    70  61  73 CALM      29.91F
$$

WIZ029-030-035-036-043>047-202200-
CENTRAL WISCONSIN

CITY           SKY/WX    TMP DP  RH WIND       PRES   REMARKS
WAUSAU         CLOUDY    73  61  65 NW6       29.89F
MOSINEE        PTSUNNY   72  61  68 VRB5      29.92S
MARSHFIELD     MOSUNNY   76  62  62 W5        29.90S
STEVENS POINT  SUNNY     72  60  66 NW3       29.90F
WAUPACA        MOSUNNY   79  63  57 N6        29.89S HX  80
WAUTOMA        SUNNY     81  64  55 VRB3      29.88S HX  82
WISC RAPIDS    PTSUNNY   79  63  57 NW8       29.90S HX  80
CAMP DOUGLAS   PTSUNNY   82  66  57 VRB1      29.88R HX  85
$$

WIZ011>013-019>022-031-037>040-048>050-202200-
NORTHEAST WISCONSIN

CITY           SKY/WX    TMP DP  RH WIND       PRES   REMARKS
ANTIGO         CLOUDY    68  61  77 W6        29.93R
STURGEON BAY   CLOUDY    70  61  73 S7        29.90S
GREEN BAY      PTSUNNY   73  63  70 NW6       29.90S
MANITOWOC      PTSUNNY   70  64  81 SE9       29.89S
APPLETON         N/A     73  61  64 N7        29.90S
CLINTONVILLE   MOSUNNY   72  59  64 N6        29.89F
OSHKOSH        MOSUNNY   74  65  73 NE8       29.88S
$$

WIZ032>034-041-042-053>061-202200-
SOUTHWEST WISCONSIN

CITY           SKY/WX    TMP DP  RH WIND       PRES   REMARKS
LA CROSSE      SUNNY     83  66  56 N3        29.85S HX  85
SPARTA         MOSUNNY   82  61  49 W8        29.88R HX  82
VIROQUA        FAIR      82  65  57 NW3       29.89S HX  83
BOSCOBEL       PTSUNNY   87  66  49 CALM      29.85S HX  89
PRAIRIE DU CHI PTSUNNY   85  63  48 SW6       29.85R HX  85
PLATTEVILLE    FAIR      82  66  57 S7        29.89R HX  84
$$

WIZ056-057-062-063-064-067-068-202200-
SOUTH CENTRAL WISCONSIN

CITY           SKY/WX    TMP DP  RH WIND       PRES   REMARKS
BARABOO/DELLS  PTSUNNY   84  60  43 NW5       29.87S HX  84
LONE ROCK      PTSUNNY   90  65  43 NW7       29.85S HX  92
WATERTOWN      MOSUNNY   82  66  57 CALM      29.86S HX  84
MADISON        PTSUNNY   85  65  51 SW5       29.86F HX  86
MIDDLETON      FAIR      84  63  48 W6        29.87S HX  85
MONROE         PTSUNNY   82  64  54 S7        29.87S HX  84
JANESVILLE     MOSUNNY   88  63  42 W8        29.85F HX  88
$$

WIZ051-052-058>065-066-070>072-202200-
SOUTHEAST WISCONSIN

CITY           SKY/WX    TMP DP  RH WIND       PRES   REMARKS
MILWAUKEE      PTSUNNY   76  66  71 SE12      29.87F
WAUKESHA       PTSUNNY   79  63  57 W6        29.89S HX  80
MILWAUKEE/TIMM MOSUNNY   79  63  57 E9        29.88S HX  80
RACINE         MOSUNNY   78  67  68 SE8       29.88F HX  80
BURLINGTON     SUNNY     82  64  55 W7        29.86F HX  83
KENOSHA        SUNNY     84  68  58 W7        29.87F HX  87
FOND DU LAC    SUNNY     77  66  68 N10       29.88S
SHEBOYGAN      MOSUNNY   74  65  73 SE7       29.89S
WEST BEND      PTSUNNY   77  64  65 E9        29.88S
JUNEAU         MOSUNNY   80  40  24 CALM      29.88S
$$

LSZ147-162-202200-
LAKE SUPERIOR

STATION/POSITION TIME  TEMP    WIND        PRES    WAVE
                       AIR SEA DIR/SP/G            HT/PER
                 (UTC) (F)     (DEG/KT/KT) (MB)    (FT/S)
W MID LAKE BUOY  2050   59 58   70/  4/  4 1013.0S   1
DEVILS ISLAND    2100   69      60/  2/  3 1012.8R
PORT WING        2040   68      30/  3/  5 1012.9R
SAXON HARBOR     2000   67      30/  4/  5 1012.9S
$$

LMZ867-665-643>646-202200-
LAKE MICHIGAN

STATION/POSITION TIME  TEMP    WIND        PRES    WAVE
                       AIR SEA DIR/SP/G            HT/PER
                 (UTC) (F)     (DEG/KT/KT) (MB)    (FT/S)
N MID LAKE BUOY  2050   63 63  240/  4/  6 1011.5F   1
NORTHPORT PIER   2000   65     330/  5/  6 1012.2S
SISTER BAY       2011   72        CALM       N/A
KEWAUNEE LAKESHO 2000   67     150/  5/  6 1011.5F
SHEBOYGAN LAKESH 2100   67 67  150/  7/  7 1012.3F
ATWATER BUOY     2000   69     130/  8/ 12 1013.2R
MILWAUKEE LAKESH 2000   69     120/  9/ 11   N/A
S MID LAKE BUOY  2050   70 69  100/  8/  8 1011.7F   0
KENOSHA   LAKESH 2100   74     120/ 10/ 11 1010.8F
$$

TC  - TEMPERATURE IN CELSIUS
VSB - VISIBILITY IN STATUTE MILES
WCI - WIND CHILL INDEX
HX  - HEAT INDEX




USA.gov is the U.S. government's official web portal to all federal, state and local government web resources and services.